Location: Cluny
(50.9333°N, 112.8167°W)
Time: 03:06:55
(UTC-06:00)

Amateur Radio Satellites - All Passes

Search period start: 20 April 2014 02:36
Search period end: 21 April 2014 02:36
Location: Cluny, 50.9333°N, 112.8167°W

Satellite Date Start Highest point End Downlink Frequencies (MHz)
Time Altitude Azimuth
Uribyol 2 20 Apr 02:47:42 02:51:53 24° 92° (E) 02:56:02 436.500 FM
UOSAT-12 20 Apr 03:17:00 03:21:28 42° 238° (WSW) 03:25:54 437.025 FM, 437.400 FM
Gurwin Techsat 1B 20 Apr 03:24:22 03:27:53 18° 88° (E) 03:31:22 435.225 FM
AO-27 20 Apr 03:27:46 03:32:48 48° 99° (E) 03:37:47 436.795 MHz FM
Sapphire 20 Apr 03:32:05 03:36:58 33° 323° (NW) 03:41:53 437.095 MHz 1200 baud AX-25 AFSK
ITAMSAT 1 20 Apr 03:38:16 03:43:24 58° 101° (ESE) 03:48:29 435.822 SSB
AO-Echo 20 Apr 03:39:21 03:44:03 48° 99° (E) 03:48:36 ?
Oscar 19 20 Apr 03:41:45 03:46:59 78° 288° (WNW) 03:52:11 437.125 CW, 437.150 USB
Oscar 16 20 Apr 03:50:13 03:55:22 64° 290° (WNW) 04:00:30 437.025 USB, Beacon 2401.1428
OPAL 20 Apr 04:03:02 04:07:32 32° 263° (W) 04:12:08 ?
TMSAT-1 20 Apr 04:11:26 04:16:06 31° 94° (E) 04:20:45 436.925 FM
KITSAT 1 20 Apr 04:12:10 04:20:15 74° 123° (ESE) 04:28:22 435.175 FM
PCSat 20 Apr 04:18:23 04:22:32 22° 334° (NNW) 04:26:42 145.825 MHz
Uribyol 2 20 Apr 04:26:39 04:31:44 58° 291° (WNW) 04:36:49 436.500 FM
JAS-1B 20 Apr 04:43:52 04:48:47 29° 93° (E) 04:53:45 435.800 - 435.900 CW/SSB
AO-7 20 Apr 04:44:59 04:51:10 22° 88° (E) 04:57:19 29.400 - 29.500 MHz
Gurwin Techsat 1B 20 Apr 05:03:11 05:08:31 81° 287° (WNW) 05:13:50 435.225 FM
STRAND 1 20 Apr 05:06:51 05:08:21 11° 48° (NE) 05:09:51 ?
AO-27 20 Apr 05:07:39 05:12:08 30° 299° (WNW) 05:16:37 436.795 MHz FM
ITAMSAT 1 20 Apr 05:18:21 05:22:35 26° 301° (WNW) 05:26:49 435.822 SSB
AO-Echo 20 Apr 05:18:36 05:22:37 27° 299° (WNW) 05:26:32 ?
Sapphire 20 Apr 05:18:49 05:22:05 16° 348° (NNW) 05:25:21 437.095 MHz 1200 baud AX-25 AFSK
Oscar 19 20 Apr 05:22:30 05:25:33 16° 308° (NW) 05:28:36 437.125 CW, 437.150 USB
Oscar 16 20 Apr 05:31:23 05:33:48 13° 310° (NW) 05:36:12 437.025 USB, Beacon 2401.1428
Uosat F 20 Apr 05:36:46 05:41:44 61° 102° (ESE) 05:46:41 435.120 FM
RS-15 20 Apr 05:48:43 05:55:01 17° 96° (E) 06:01:12 29.354 - 29.394 USB, Beacon 29.352 USB
TMSAT-1 20 Apr 05:51:10 05:56:14 47° 293° (WNW) 06:01:16 436.925 FM
PCSat 20 Apr 06:05:06 06:08:03 15° 1° (N) 06:10:59 145.825 MHz
Uribyol 2 20 Apr 06:08:14 06:10:13 12° 311° (NW) 06:12:12 436.500 FM
KITSAT 1 20 Apr 06:08:37 06:16:18 43° 328° (NNW) 06:24:00 435.175 FM
MaSat-1 20 Apr 06:10:59 06:13:04 19° 48° (NE) 06:15:22 437.345 MHz
JAS-1B 20 Apr 06:34:21 06:39:51 49° 295° (WNW) 06:45:22 435.800 - 435.900 CW/SSB
AO-7 20 Apr 06:36:48 06:45:11 85° 110° (ESE) 06:53:33 29.400 - 29.500 MHz
STRAND 1 20 Apr 06:41:31 06:46:29 54° 68° (ENE) 06:51:28 ?
Gurwin Techsat 1B 20 Apr 06:44:27 06:47:44 17° 307° (NW) 06:51:00 435.225 FM
AO-40 20 Apr 06:58:49 11:41:17 25° 175° (S) 14:53:27 Beacon 2401.320
Sapphire 20 Apr 07:04:20 07:07:45 17° 15° (NNE) 07:11:09 437.095 MHz 1200 baud AX-25 AFSK
Uosat F 20 Apr 07:16:13 07:20:11 24° 301° (WNW) 07:24:08 435.120 FM
JAS-2 20 Apr 07:18:51 07:21:55 15° 88° (E) 07:25:05 435.800 - 435.900 CW/SSB, 435.910 FM
TMSAT-1 20 Apr 07:34:21 07:34:57 10° 314° (NW) 07:35:33 436.925 FM
MaSat-1 20 Apr 07:48:56 07:51:32 31° 243° (WSW) 07:54:30 437.345 MHz
PCSat 20 Apr 07:49:18 07:53:32 22° 27° (NNE) 07:57:44 145.825 MHz
Hamsat 20 Apr 07:53:51 07:58:13 73° 102° (ESE) 08:02:35 145.90 MHz
RS-15 20 Apr 07:54:01 08:05:00 63° 120° (ESE) 08:15:42 29.354 - 29.394 USB, Beacon 29.352 USB
KITSAT 1 20 Apr 08:07:12 08:13:58 28° 356° (N) 08:20:45 435.175 FM
STRAND 1 20 Apr 08:21:47 08:26:00 26° 267° (W) 08:30:14 ?
JAS-1B 20 Apr 08:27:58 08:29:10 11° 319° (NW) 08:30:21 435.800 - 435.900 CW/SSB
AO-7 20 Apr 08:30:15 08:37:14 32° 312° (NW) 08:44:13 29.400 - 29.500 MHz
SO-67 20 Apr 08:46:21 08:49:50 56° 100° (E) 08:53:16 435.3500 MHz FM
Sapphire 20 Apr 08:47:43 08:52:45 37° 39° (NE) 08:57:46 437.095 MHz 1200 baud AX-25 AFSK
JAS-2 20 Apr 09:02:26 09:07:46 89° 106° (ESE) 09:13:34 435.800 - 435.900 CW/SSB, 435.910 FM
Hamsat 20 Apr 09:30:57 09:33:43 17° 301° (WNW) 09:36:30 145.90 MHz
PCSat 20 Apr 09:32:30 09:37:56 68° 50° (NE) 09:43:21 145.825 MHz
KITSAT 1 20 Apr 10:04:28 10:11:53 37° 25° (NNE) 10:19:15 435.175 FM
RS-15 20 Apr 10:06:45 10:17:41 57° 327° (NNW) 10:28:28 29.354 - 29.394 USB, Beacon 29.352 USB
HO-68 20 Apr 10:07:54 10:14:28 37° 96° (E) 10:20:59 435.675 MHz FM
SO-67 20 Apr 10:20:37 10:22:36 14° 299° (WNW) 10:24:34 435.3500 MHz FM
AO-7 20 Apr 10:24:29 10:27:29 12° 338° (NNW) 10:30:29 29.400 - 29.500 MHz
Sapphire 20 Apr 10:31:08 10:36:26 54° 241° (WSW) 10:41:41 437.095 MHz 1200 baud AX-25 AFSK
Saudisat 1A 20 Apr 10:47:53 10:49:46 13° 110° (ESE) 10:51:39 436.775 MHz
JAS-2 20 Apr 10:48:50 10:52:20 18° 305° (NW) 10:55:58 435.800 - 435.900 CW/SSB, 435.910 FM
FUNcube-1 20 Apr 11:02:04 11:04:37 15° 89° (E) 11:07:10 145.950 - 145.970 MHz USB
Oscar 11 20 Apr 11:08:10 11:12:24 46° 99° (E) 11:16:36 145.825 FM, Beacon 2401.500 USB
PCSat 20 Apr 11:16:34 11:20:56 25° 250° (WSW) 11:25:17 145.825 MHz
HO-68 20 Apr 11:55:29 12:02:30 58° 296° (WNW) 12:09:29 435.675 MHz FM
Oscar 16 20 Apr 11:58:43 11:59:58 11° 47° (NE) 12:01:13 437.025 USB, Beacon 2401.1428
KITSAT 1 20 Apr 12:00:12 12:08:23 86° 51° (NE) 12:16:30 435.175 FM
Oscar 10/S400 20 Apr 12:13:45 13:44:43 38° 238° (WSW) 18:29:37 145.825 - 145.975 CW/USB, Beacon 145.810 USB
RS-15 20 Apr 12:22:31 12:32:40 40° 359° (N) 12:42:48 29.354 - 29.394 USB, Beacon 29.352 USB
Saudisat 1A 20 Apr 12:24:10 12:28:38 76° 129° (SE) 12:33:07 436.775 MHz
Uribyol 2 20 Apr 12:34:56 12:36:58 12° 49° (NE) 12:38:59 436.500 FM
FUNcube-1 20 Apr 12:37:17 12:41:30 68° 287° (WNW) 12:45:47 145.950 - 145.970 MHz USB
Oscar 11 20 Apr 12:44:52 12:48:23 24° 298° (WNW) 12:51:53 145.825 FM, Beacon 2401.500 USB
AO-27 20 Apr 13:13:18 13:17:14 22° 57° (ENE) 13:21:10 436.795 MHz FM
AO-Echo 20 Apr 13:20:13 13:23:53 20° 57° (ENE) 13:27:30 ?
ITAMSAT 1 20 Apr 13:23:22 13:27:34 26° 59° (ENE) 13:31:47 435.822 SSB
Oscar 19 20 Apr 13:24:58 13:29:46 42° 65° (ENE) 13:34:38 437.125 CW, 437.150 USB
Oscar 16 20 Apr 13:33:15 13:38:13 51° 68° (ENE) 13:43:14 437.025 USB, Beacon 2401.1428
HO-68 20 Apr 13:44:29 13:48:50 17° 319° (NW) 13:53:11 435.675 MHz FM
JAS-1B 20 Apr 13:48:36 13:51:13 13° 44° (NE) 13:53:42 435.800 - 435.900 CW/SSB
KITSAT 1 20 Apr 13:56:24 14:02:57 28° 253° (WSW) 14:09:29 435.175 FM
TMSAT-1 20 Apr 14:00:18 14:03:19 16° 52° (NE) 14:06:20 436.925 FM
AO-7 20 Apr 14:01:06 14:06:02 18° 33° (NNE) 14:10:59 29.400 - 29.500 MHz
Saudisat 1A 20 Apr 14:04:53 14:08:42 27° 330° (NNW) 14:12:32 436.775 MHz
Uribyol 2 20 Apr 14:10:23 14:15:27 59° 69° (ENE) 14:20:32 436.500 FM
FUNcube-1 20 Apr 14:16:16 14:17:10 11° 306° (NW) 14:18:05 145.950 - 145.970 MHz USB
RS-15 20 Apr 14:36:57 14:47:42 56° 32° (NNE) 14:58:33 29.354 - 29.394 USB, Beacon 29.352 USB
Gurwin Techsat 1B 20 Apr 14:50:01 14:55:01 44° 66° (ENE) 15:00:02 435.225 FM
AO-27 20 Apr 14:51:07 14:56:18 71° 257° (WSW) 15:01:30 436.795 MHz FM
AO-Echo 20 Apr 14:56:56 15:02:09 78° 256° (WSW) 15:07:15 ?
ITAMSAT 1 20 Apr 15:01:38 15:06:45 59° 258° (WSW) 15:11:53 435.822 SSB
Oscar 19 20 Apr 15:04:35 15:09:14 34° 265° (W) 15:13:55 437.125 CW, 437.150 USB
Oscar 16 20 Apr 15:13:30 15:17:51 27° 267° (W) 15:22:14 437.025 USB, Beacon 2401.1428
Uosat F 20 Apr 15:17:44 15:21:45 25° 59° (ENE) 15:25:46 435.120 FM
SO-50 20 Apr 15:18:47 15:21:07 14° 111° (ESE) 15:23:29 436.795 FM
JAS-1B 20 Apr 15:33:24 15:40:37 49° 65° (ENE) 15:46:45 435.800 - 435.900 CW/SSB
TMSAT-1 20 Apr 15:37:08 15:42:25 75° 72° (ENE) 15:47:43 436.925 FM
Saudisat 1A 20 Apr 15:47:13 15:49:44 15° 354° (N) 15:52:14 436.775 MHz
AO-7 20 Apr 15:49:09 15:56:59 49° 57° (ENE) 16:04:50 29.400 - 29.500 MHz
Uribyol 2 20 Apr 15:51:12 15:55:19 24° 268° (W) 15:59:27 436.500 FM
OPAL 20 Apr 16:07:00 16:12:00 44° 101° (E) 16:16:59 ?
ISS 20 Apr 16:09:26 16:12:10 23° 145° (SE) 16:14:55 145.800 FM
Gurwin Techsat 1B 20 Apr 16:30:21 16:35:07 33° 265° (W) 16:39:55 435.225 FM
AO-27 20 Apr 16:35:11 16:36:47 11° 276° (W) 16:38:24 436.795 MHz FM
AO-Echo 20 Apr 16:39:27 16:41:44 13° 275° (W) 16:44:00 ?
RS-15 20 Apr 16:49:44 17:00:27 65° 239° (WSW) 17:11:24 29.354 - 29.394 USB, Beacon 29.352 USB
Uosat F 20 Apr 16:55:15 17:00:12 60° 258° (WSW) 17:05:12 435.120 FM
SO-50 20 Apr 16:56:30 17:00:59 85° 130° (SE) 17:05:33 436.795 FM
Hamsat 20 Apr 17:18:42 17:20:59 14° 57° (ENE) 17:23:17 145.90 MHz
TMSAT-1 20 Apr 17:19:13 17:22:56 19° 271° (W) 17:26:41 436.925 FM
JAS-1B 20 Apr 17:24:11 17:31:24 41° 262° (W) 17:37:34 435.800 - 435.900 CW/SSB
Saudisat 1A 20 Apr 17:27:54 17:31:00 18° 18° (NNE) 17:34:05 436.775 MHz
UOSAT-12 20 Apr 17:34:05 17:37:10 18° 112° (ESE) 17:40:18 437.025 FM, 437.400 FM
JAS-2 20 Apr 17:38:52 17:41:20 13° 50° (NE) 17:43:46 435.800 - 435.900 CW/SSB, 435.910 FM
AO-7 20 Apr 17:41:50 17:49:49 51° 259° (W) 17:57:52 29.400 - 29.500 MHz
ISS 20 Apr 17:45:14 17:48:35 77° 164° (SSE) 17:51:57 145.800 FM
OPAL 20 Apr 17:46:07 17:50:48 34° 300° (WNW) 17:55:28 ?
SO-50 20 Apr 18:38:19 18:42:06 26° 332° (NNW) 18:45:57 436.795 FM
STRAND 1 20 Apr 18:49:04 18:50:58 12° 85° (E) 18:52:51 ?
Hamsat 20 Apr 18:52:09 18:56:23 84° 256° (WSW) 19:00:41 145.90 MHz
HO-68 20 Apr 18:58:47 19:02:19 15° 38° (NE) 19:05:52 435.675 MHz FM
RS-15 20 Apr 19:04:06 19:10:30 18° 263° (W) 19:17:00 29.354 - 29.394 USB, Beacon 29.352 USB
Saudisat 1A 20 Apr 19:07:15 19:11:36 50° 41° (NE) 19:15:53 436.775 MHz
UOSAT-12 20 Apr 19:12:09 19:16:45 82° 312° (NW) 19:21:29 437.025 FM, 437.400 FM
JAS-2 20 Apr 19:20:03 19:25:38 67° 71° (ENE) 19:30:50 435.800 - 435.900 CW/SSB, 435.910 FM
ISS 20 Apr 19:22:01 19:25:23 78° 4° (N) 19:28:45 145.800 FM
SO-67 20 Apr 19:24:51 19:28:10 42° 71° (ENE) 19:31:31 435.3500 MHz FM
AO-7 20 Apr 19:43:15 19:44:47 11° 282° (WNW) 19:46:18 29.400 - 29.500 MHz
SO-50 20 Apr 20:21:33 20:24:11 15° 356° (N) 20:26:51 436.795 FM
STRAND 1 20 Apr 20:25:56 20:31:04 75° 104° (ESE) 20:36:10 ?
Hamsat 20 Apr 20:32:15 20:33:06 11° 275° (W) 20:33:57 145.90 MHz
Oscar 11 20 Apr 20:35:39 20:36:53 11° 53° (NE) 20:38:08 145.825 FM, Beacon 2401.500 USB
HO-68 20 Apr 20:41:39 20:48:24 47° 60° (ENE) 20:55:10 435.675 MHz FM
Saudisat 1A 20 Apr 20:47:11 20:51:02 29° 241° (WSW) 20:54:50 436.775 MHz
UOSAT-12 20 Apr 20:53:48 20:57:36 24° 334° (NNW) 21:01:28 437.025 FM, 437.400 FM
ISS 20 Apr 20:58:48 21:02:05 51° 204° (SSW) 21:05:22 145.800 FM
SO-67 20 Apr 20:59:14 21:01:33 17° 269° (W) 21:03:54 435.3500 MHz FM
JAS-2 20 Apr 21:07:08 21:11:15 21° 269° (W) 21:15:12 435.800 - 435.900 CW/SSB, 435.910 FM
MaSat-1 20 Apr 21:57:13 21:59:24 21° 115° (ESE) 22:01:26 437.345 MHz
SO-50 20 Apr 22:02:58 22:06:25 20° 21° (NNE) 22:09:53 436.795 FM
FUNcube-1 20 Apr 22:03:34 22:06:53 23° 63° (ENE) 22:10:13 145.950 - 145.970 MHz USB
STRAND 1 20 Apr 22:06:03 22:09:45 21° 304° (NW) 22:13:27 ?
Oscar 11 20 Apr 22:08:01 22:12:17 69° 73° (ENE) 22:16:37 145.825 FM, Beacon 2401.500 USB
HO-68 20 Apr 22:29:22 22:36:10 46° 261° (W) 22:43:01 435.675 MHz FM
UOSAT-12 20 Apr 22:36:30 22:39:20 16° 359° (N) 22:42:11 437.025 FM, 437.400 FM
ISS 20 Apr 22:36:35 22:38:15 13° 222° (SW) 22:39:55 145.800 FM
MaSat-1 20 Apr 23:35:46 23:37:45 19° 312° (NW) 23:39:40 437.345 MHz
FUNcube-1 20 Apr 23:39:08 23:43:08 43° 261° (W) 23:47:08 145.950 - 145.970 MHz USB
SO-50 20 Apr 23:43:17 23:47:52 60° 44° (NE) 23:52:30 436.795 FM
Oscar 11 20 Apr 23:46:23 23:48:59 16° 271° (W) 23:51:36 145.825 FM, Beacon 2401.500 USB
UOSAT-12 21 Apr 00:17:24 00:21:07 22° 23° (NNE) 00:24:51 437.025 FM, 437.400 FM
PCSat 21 Apr 00:20:48 00:24:42 21° 108° (ESE) 00:28:37 145.825 MHz
Sapphire 21 Apr 01:17:37 01:22:48 49° 118° (ESE) 01:28:02 437.095 MHz 1200 baud AX-25 AFSK
SO-50 21 Apr 01:24:20 01:28:10 26° 243° (WSW) 01:32:03 436.795 FM
Oscar 16 21 Apr 01:41:44 01:43:48 12° 84° (E) 01:45:51 437.025 USB, Beacon 2401.1428
OPAL 21 Apr 01:49:34 01:53:39 25° 56° (NE) 01:57:47 ?
UOSAT-12 21 Apr 01:57:21 02:02:05 69° 45° (NE) 02:06:47 437.025 FM, 437.400 FM
PCSat 21 Apr 02:02:05 02:07:31 81° 308° (NW) 02:12:59 145.825 MHz
Uribyol 2 21 Apr 02:19:28 02:22:10 14° 86° (E) 02:24:51 436.500 FM
